Regional Weather Roundup
Issued by NWS

Home | Current Version | Previous Version | Graphics & Text | Print | Product List | Glossary Off
Versions: 1 2 3 4 5 6 7 8 9 10 11 12 13 14 15 16 17 18 19 20 21 22 23 24 25 26 27 28 29 30 31 32 33 34 35 36 37 38 39 40 41 42 43 44 45 46 47 48 49 50

000
ASUS43 KMKX 241000
RWRWI

WISCONSIN REGIONAL WEATHER ROUNDUP
NATIONAL WEATHER SERVICE MILWAUKEE/SULLIVAN WI
500 AM CDT THU APR 24 2014

NOTE: "FAIR" INDICATES FEW OR NO CLOUDS BELOW 12,000 FEET WITH NO
SIGNIFICANT WEATHER AND/OR OBSTRUCTIONS TO VISIBILITY.

WIZ001-002-006>008-014>016-023>028-241100-
NORTHWEST WISCONSIN

CITY           SKY/WX    TMP DP  RH WIND       PRES   REMARKS
SUPERIOR ARPT  CLOUDY    35  35  99 NE8       29.99S WCI  29
ASHLAND        CLOUDY    37  36  96 E6        30.03F WCI  32
HAYWARD        CLOUDY    37  34  89 SE10G20   29.97F WCI  30
SIREN          DRIZZLE   40  38  91 SE10G18   29.92R WCI  34
RICE LAKE      LGT RAIN  38  36  92 E17G24    29.96R WCI  28
LADYSMITH      LGT RAIN  37  33  88 E10       30.00F WCI  29
EAU CLAIRE     LGT RAIN  38  36  92 E10       29.93F WCI  31
MENOMONIE      DRIZZLE   40  37  87 E12G18    29.93S WCI  33
NEW RICHMOND   LGT RAIN  40  39  97 SE12G20   29.88F WCI  33
OSCEOLA        CLOUDY    42  40  92 SE15G26   29.90F
$$

WIZ003>005-009-010-017-018-241100-
NORTH CENTRAL WISCONSIN

CITY           SKY/WX    TMP DP  RH WIND       PRES   REMARKS
WOODRUFF       LGT SNOW  34  31  90 SE12      30.03F WCI  25
RHINELANDER    FLURRIES  33  31  92 E13       30.04F WCI  24
EAGLE RIVER    LGT SNOW  34  29  82 SE6       30.05F WCI  29
LAND O LAKES   CLOUDY    38  24  57 SE7       30.06F WCI  33
PHILLIPS       CLOUDY    33  32  95 E9        30.00F WCI  26
TOMAHAWK       CLOUDY    32  31  95 E6        30.02F WCI  27
MEDFORD        CLOUDY    36  21  55 E6        30.00S WCI  31
MERRILL        CLOUDY    35  29  79 E3        30.01F
$$

WIZ029-030-035-036-043>047-241100-
CENTRAL WISCONSIN

CITY           SKY/WX    TMP DP  RH WIND       PRES   REMARKS
WAUSAU         CLOUDY    39  18  42 SE9       30.00F WCI  33
MOSINEE        CLOUDY    37  14  38 E8        30.02F WCI  31
MARSHFIELD     MIX PCPN  35  29  78 E9        29.99S WCI  28
STEVENS POINT  CLOUDY    38  16  41 E7        30.03S WCI  32
WAUPACA        CLOUDY    43  19  39 SE7       30.05F
WAUTOMA        NOT AVBL
WISC RAPIDS    LGT RAIN  35  30  82 E7        30.02F WCI  29
CAMP DOUGLAS   NOT AVBL
$$

WIZ011>013-019>022-031-037>040-048>050-241100-
NORTHEAST WISCONSIN

CITY           SKY/WX    TMP DP  RH WIND       PRES   REMARKS
ANTIGO         CLOUDY    37  20  52 E8        30.04F WCI  30
STURGEON BAY   CLOUDY    37  23  56 CALM      30.11S
GREEN BAY      CLOUDY    40  28  62 CALM      30.08F
MANITOWOC      NOT AVBL
APPLETON       CLOUDY    39  21  48 SE6       30.07F WCI  35
CLINTONVILLE   CLOUDY    39  23  52 E3        30.07F
OSHKOSH        CLOUDY    39  23  52 SE8       30.05F WCI  33
$$

WIZ032>034-041-042-053>061-241100-
SOUTHWEST WISCONSIN

CITY           SKY/WX    TMP DP  RH WIND       PRES   REMARKS
LA CROSSE      LGT RAIN  40  36  86 S8        29.90F WCI  34
SPARTA         DRIZZLE   37  36  94 E13       29.96F WCI  29
VIROQUA        CLOUDY    36  36  99 E15       29.92F WCI  27
BOSCOBEL       CLOUDY    40  36  86 NE6       29.94F
PRAIRIE DU CHI DRIZZLE   41  35  79 E9        29.91S
PLATTEVILLE    CLOUDY    39  32  76 E20G26    29.92F WCI  30
$$

WIZ056-057-062-063-064-067-068-241100-
SOUTH CENTRAL WISCONSIN

CITY           SKY/WX    TMP DP  RH WIND       PRES   REMARKS
BARABOO/DELLS  DRIZZLE   35  33  92 E7        30.00S WCI  29
LONE ROCK      NOT AVBL
WATERTOWN      MIX PCPN  34  30  85 E8        30.03F WCI  27
MADISON        LGT RAIN  36  31  82 SE10      30.01F WCI  28
MIDDLETON      CLOUDY    38  32  80 SE12      30.01F WCI  30
MONROE         CLOUDY    37  36  95 E12       29.98F WCI  29
JANESVILLE     CLOUDY    37  32  81 E12       30.01F WCI  30
$$

WIZ051-052-058>065-066-070>072-241100-
SOUTHEAST WISCONSIN

CITY           SKY/WX    TMP DP  RH WIND       PRES   REMARKS
MILWAUKEE      LGT RAIN  39  30  70 NE5       30.08F
WAUKESHA       CLOUDY    34  28  80 NE6       30.07F WCI  29
MILWAUKEE/TIMM LGT RAIN  36  27  69 CALM      30.09F
RACINE         LGT RAIN  37  34  89 E5        30.08F WCI  33
BURLINGTON     MIX PCPN  34  31  90 E9        30.05F WCI  27
KENOSHA        LGT RAIN  37  34  89 NE7       30.07F WCI  32
FOND DU LAC    LGT RAIN  39  29  67 E10       30.05F WCI  32
SHEBOYGAN      CLOUDY    38  28  67 SW7       30.09F WCI  33
WEST BEND      CLOUDY    36  25  64 CALM      30.08F
JUNEAU         RAIN      35  28  76 E10       30.05F WCI  27
$$

LSZ147-162-241100-
LAKE SUPERIOR

STATION/POSITION TIME  TEMP    WIND        PRES    WAVE
                       AIR SEA DIR/SP/G            HT/PER
                 (UTC) (F)     (DEG/KT/KT) (MB)    (FT/S)
DEVILS ISLAND    0900   39     160/  7/  8 1018.3F
PORT WING        0940   34      30/  8/ 10 1015.9F
SAXON HARBOR     0940             CALM     1017.3F
$$

LMZ867-665-643>646-241100-
LAKE MICHIGAN

STATION/POSITION TIME  TEMP    WIND        PRES    WAVE
                       AIR SEA DIR/SP/G            HT/PER
                 (UTC) (F)     (DEG/KT/KT) (MB)    (FT/S)
NORTHPORT PIER   0900   35     130/  5/  5 1020.3R
SISTER BAY       0923   37     120/ 10/ 14   N/A
KEWAUNEE LAKESHO 0900   38      CALM  /  4 1020.1R
SHEBOYGAN LAKESH 0900   42      60/  2/  2 1019.9S
PORT WASHINGTON  0900   41     290/  2/  4 1020.0F
MILWAUKEE LAKESH 0900   40     310/  1/  2   N/A
KENOSHA   LAKESH 0900   38     290/  4/  5   N/A
$$

TC  - TEMPERATURE IN CELSIUS
VSB - VISIBILITY IN STATUTE MILES
WCI - WIND CHILL INDEX
HX  - HEAT INDEX




USA.gov is the U.S. government's official web portal to all federal, state and local government web resources and services.